Total_Precipitation_Accumulation
0.81 1.18 0.77 0.56 0.46 0.37 0.31 0.09 0.06 0.04 0.02 0.02 0.01 0.01 0.00 0.00 0.00 0.00 0.00 0.00 0.00 0.00
0.47 0.65 0.88 0.81 0.51 0.39 0.42 0.31 0.10 0.05 0.06 0.03 0.01 0.01 0.00 0.00 0.00 0.00 0.00 0.00 0.00 0.00
0.61 0.56 0.50 0.71 0.70 0.49 0.51 0.43 0.25 0.05 0.03 0.03 0.01 0.00 0.00 0.00 0.00 0.00 0.00 0.00 0.00 0.00
0.62 0.65 0.75 0.47 0.59 0.58 0.54 0.47 0.35 0.18 0.02 0.01 0.01 0.01 0.00 0.00 0.00 0.00 0.00 0.00 0.00 0.00
0.51 0.50 0.65 0.52 0.38 0.57 0.57 0.51 0.45 0.36 0.13 0.02 0.01 0.01 0.02 0.00 0.00 0.00 0.00 0.00 0.00 0.00
0.63 0.46 0.43 0.38 0.29 0.39 0.54 0.56 0.57 0.43 0.31 0.07 0.01 0.01 0.01 0.03 0.01 0.00 0.00 0.00 0.00 0.00
0.64 0.60 0.42 0.33 0.27 0.34 0.42 0.43 0.47 0.38 0.28 0.24 0.06 0.01 0.01 0.01 0.02 0.01 0.00 0.00 0.00 0.00
0.59 0.59 0.57 0.35 0.25 0.28 0.34 0.32 0.31 0.37 0.34 0.28 0.20 0.06 0.02 0.01 0.01 0.02 0.01 0.00 0.00 0.00
0.73 0.51 0.58 0.46 0.29 0.25 0.21 0.24 0.33 0.33 0.30 0.23 0.16 0.23 0.15 0.03 0.01 0.01 0.01 0.01 0.00 0.00
0.86 0.63 0.51 0.62 0.45 0.28 0.19 0.15 0.15 0.21 0.23 0.22 0.19 0.26 0.18 0.10 0.02 0.01 0.02 0.01 0.01 0.01
0.78 0.85 0.52 0.55 0.56 0.33 0.20 0.16 0.10 0.09 0.11 0.17 0.25 0.35 0.23 0.16 0.07 0.02 0.01 0.02 0.01 0.01
0.77 0.80 0.77 0.55 0.65 0.55 0.30 0.17 0.13 0.08 0.08 0.11 0.16 0.33 0.32 0.23 0.10 0.05 0.02 0.03 0.03 0.04
0.73 0.75 0.82 0.75 0.58 0.56 0.38 0.20 0.16 0.10 0.06 0.12 0.14 0.26 0.28 0.22 0.10 0.07 0.06 0.05 0.05 0.06
0.64 0.70 0.72 0.82 0.68 0.53 0.42 0.32 0.25 0.25 0.16 0.07 0.10 0.17 0.20 0.16 0.07 0.06 0.07 0.06 0.06 0.04